Location: Bronnegerveen
(52.9548°N, 6.8388°E)
Time: 02:53:06
(UTC+00:00)

NOSS 2-1 (E) - Pass Details

Date: 15 June 2025
Orbit: 385 x 1749 km, 63.3° (Epoch: 07 May)

Event Time Altitude Azimuth Distance (km) Brightness Sun altitude
Rises 00:21:27 0° 305° (NW) 2,439 7.0 -13.0°
Reaches altitude 10° 00:23:31 10° 292° (WNW) 1,666 5.9 -12.9°
Maximum altitude 00:26:40 28° 232° (SW) 1,080 4.4 -12.8°
Enters shadow 00:28:37 20° 192° (SSW) 1,450 4.8 -12.8°
